Time,TemperatureF,DewpointF,PressureIn,WindDirection,WindDirectionDegrees,WindSpeedMPH,WindSpeedGustMPH,Humidity,HourlyPrecipIn,Conditions,Clouds,dailyrainin,SoftwareType,DateUTC
2013-04-05 00:12:00,37.3,36.0,30.24,ENE,72,2.0,2.0,94,0.00,,,0.00,weatherlink.com 1.10,2013-04-05 05:12:00,
2013-04-05 00:27:00,36.8,35.0,30.24,NW,310,0.0,2.0,94,0.00,,,0.00,weatherlink.com 1.10,2013-04-05 05:27:00,
2013-04-05 00:57:00,36.0,35.0,30.25,WSW,256,0.0,2.0,95,0.00,,,0.00,weatherlink.com 1.10,2013-04-05 05:57:00,
2013-04-05 01:12:00,36.0,35.0,30.25,WSW,256,0.0,0.0,95,0.00,,,0.00,weatherlink.com 1.10,2013-04-05 06:12:00,
2013-04-05 01:27:00,35.8,35.0,30.24,WSW,256,0.0,0.0,95,0.00,,,0.00,weatherlink.com 1.10,2013-04-05 06:27:00,
2013-04-05 01:42:00,35.7,34.0,30.24,WSW,256,0.0,0.0,95,0.00,,,0.00,weatherlink.com 1.10,2013-04-05 06:42:00,
2013-04-05 01:57:00,35.5,34.0,30.23,WSW,256,0.0,0.0,95,0.00,,,0.00,weatherlink.com 1.10,2013-04-05 06:57:00,
2013-04-05 02:12:00,35.0,34.0,30.23,NNE,29,0.0,0.0,95,0.00,,,0.00,weatherlink.com 1.10,2013-04-05 07:12:00,
2013-04-05 02:27:00,34.7,34.0,30.23,North,5,0.0,0.0,95,0.00,,,0.00,weatherlink.com 1.10,2013-04-05 07:27:00,
2013-04-05 02:43:00,35.1,34.0,30.24,WSW,250,3.0,4.0,95,0.00,,,0.00,weatherlink.com 1.10,2013-04-05 07:43:00,
2013-04-05 02:58:00,34.3,33.0,30.23,West,265,3.0,4.0,95,0.00,,,0.00,weatherlink.com 1.10,2013-04-05 07:58:00,
2013-04-05 03:13:00,34.6,33.0,30.23,WNW,283,0.0,3.0,95,0.00,,,0.00,weatherlink.com 1.10,2013-04-05 08:13:00,
2013-04-05 03:28:00,34.0,33.0,30.22,West,277,1.0,3.0,95,0.00,,,0.00,weatherlink.com 1.10,2013-04-05 08:28:00,
2013-04-05 03:43:00,34.4,33.0,30.23,West,267,1.0,3.0,96,0.00,,,0.00,weatherlink.com 1.10,2013-04-05 08:43:00,
2013-04-05 03:58:00,34.6,34.0,30.23,NNW,340,0.0,0.0,96,0.00,,,0.00,weatherlink.com 1.10,2013-04-05 08:58:00,
2013-04-05 04:13:00,34.2,33.0,30.24,West,278,2.0,3.0,96,0.00,,,0.00,weatherlink.com 1.10,2013-04-05 09:13:00,
2013-04-05 04:28:00,34.3,33.0,30.24,West,271,0.0,3.0,96,0.00,,,0.00,weatherlink.com 1.10,2013-04-05 09:28:00,
2013-04-05 04:43:00,34.0,33.0,30.23,West,271,0.0,1.0,96,0.00,,,0.00,weatherlink.com 1.10,2013-04-05 09:43:00,
2013-04-05 04:58:00,33.8,33.0,30.24,West,271,2.0,2.0,96,0.00,,,0.00,weatherlink.com 1.10,2013-04-05 09:58:00,
2013-04-05 05:13:00,33.5,33.0,30.25,West,270,2.0,3.0,96,0.01,,,0.01,weatherlink.com 1.10,2013-04-05 10:13:00,
2013-04-05 05:28:00,32.7,32.0,30.24,West,269,0.0,1.0,95,0.01,,,0.01,weatherlink.com 1.10,2013-04-05 10:28:00,
2013-04-05 05:43:00,32.3,31.0,30.23,West,272,0.0,2.0,95,0.01,,,0.01,weatherlink.com 1.10,2013-04-05 10:43:00,
2013-04-05 05:58:00,31.9,31.0,30.23,West,272,1.0,1.0,95,0.01,,,0.01,weatherlink.com 1.10,2013-04-05 10:58:00,
2013-04-05 06:13:00,32.0,31.0,30.24,West,272,0.0,2.0,96,0.00,,,0.01,weatherlink.com 1.10,2013-04-05 11:13:00,
2013-04-05 06:28:00,32.4,31.0,30.23,West,273,0.0,1.0,96,0.00,,,0.01,weatherlink.com 1.10,2013-04-05 11:28:00,
2013-04-05 06:44:00,32.2,31.0,30.23,West,273,0.0,0.0,96,0.00,,,0.01,weatherlink.com 1.10,2013-04-05 11:44:00,
2013-04-05 06:58:00,31.6,31.0,30.23,West,273,0.0,1.0,96,0.00,,,0.01,weatherlink.com 1.10,2013-04-05 11:58:00,
2013-04-05 07:13:00,31.2,30.0,30.24,West,272,1.0,3.0,96,0.00,,,0.01,weatherlink.com 1.10,2013-04-05 12:13:00,
2013-04-05 07:28:00,31.3,30.0,30.25,West,273,0.0,1.0,96,0.00,,,0.01,weatherlink.com 1.10,2013-04-05 12:28:00,
2013-04-05 07:43:00,31.2,30.0,30.25,West,273,0.0,1.0,96,0.00,,,0.01,weatherlink.com 1.10,2013-04-05 12:43:00,
2013-04-05 07:58:00,32.5,32.0,30.25,West,273,0.0,1.0,96,0.00,,,0.01,weatherlink.com 1.10,2013-04-05 12:58:00,
2013-04-05 08:13:00,35.5,35.0,30.24,NNW,331,0.0,2.0,97,0.00,,,0.01,weatherlink.com 1.10,2013-04-05 13:13:00,
2013-04-05 08:28:00,37.7,37.0,30.24,ENE,65,0.0,2.0,97,0.00,,,0.01,weatherlink.com 1.10,2013-04-05 13:28:00,
2013-04-05 08:43:00,38.9,38.0,30.25,SE,138,0.0,2.0,97,0.00,,,0.01,weatherlink.com 1.10,2013-04-05 13:43:00,
2013-04-05 08:58:00,40.1,39.0,30.25,South,171,1.0,2.0,97,0.00,,,0.01,weatherlink.com 1.10,2013-04-05 13:58:00,
2013-04-05 09:13:00,41.6,41.0,30.24,SW,218,3.0,5.0,97,0.00,,,0.01,weatherlink.com 1.10,2013-04-05 14:13:00,
2013-04-05 09:43:00,46.1,43.0,30.24,SW,234,4.0,8.0,88,0.00,,,0.01,weatherlink.com 1.10,2013-04-05 14:43:00,
2013-04-05 09:59:00,47.5,43.0,30.24,SSE,156,3.0,9.0,85,0.00,,,0.01,weatherlink.com 1.10,2013-04-05 14:59:00,
2013-04-05 10:29:00,49.3,43.0,30.24,South,173,3.0,10.0,79,0.00,,,0.01,weatherlink.com 1.10,2013-04-05 15:29:00,
2013-04-05 10:44:00,50.7,44.0,30.24,South,175,8.0,11.0,79,0.00,,,0.01,weatherlink.com 1.10,2013-04-05 15:44:00,
2013-04-05 10:59:00,51.6,45.0,30.23,SSE,163,12.0,13.0,77,0.00,,,0.01,weatherlink.com 1.10,2013-04-05 15:59:00,
2013-04-05 11:14:00,52.6,45.0,30.23,SE,145,5.0,17.0,74,0.00,,,0.01,weatherlink.com 1.10,2013-04-05 16:14:00,
2013-04-05 11:29:00,53.1,45.0,30.22,SSE,160,5.0,18.0,74,0.00,,,0.01,weatherlink.com 1.10,2013-04-05 16:29:00,
2013-04-05 11:44:00,54.4,46.0,30.22,SSE,165,10.0,16.0,73,0.00,,,0.01,weatherlink.com 1.10,2013-04-05 16:44:00,
2013-04-05 20:07:00,60.5,47.0,29.94,SE,146,9.0,13.0,62,0.00,,,0.01,weatherlink.com 1.10,2013-04-06 01:07:00,
2013-04-05 20:14:00,60.3,47.0,29.94,SE,125,7.0,14.0,62,0.00,,,0.01,weatherlink.com 1.10,2013-04-06 01:14:00,
2013-04-05 20:29:00,59.7,47.0,29.93,SE,140,12.0,15.0,63,0.00,,,0.01,weatherlink.com 1.10,2013-04-06 01:29:00,
2013-04-05 20:44:00,59.1,47.0,29.92,SSE,150,10.0,17.0,64,0.00,,,0.01,weatherlink.com 1.10,2013-04-06 01:44:00,
2013-04-05 20:59:00,58.2,47.0,29.93,SSE,151,9.0,14.0,66,0.00,,,0.01,weatherlink.com 1.10,2013-04-06 01:59:00,
2013-04-05 21:14:00,57.8,47.0,29.93,ESE,119,12.0,15.0,67,0.00,,,0.01,weatherlink.com 1.10,2013-04-06 02:14:00,
2013-04-05 21:29:00,57.3,47.0,29.93,ESE,113,7.0,17.0,68,0.00,,,0.01,weatherlink.com 1.10,2013-04-06 02:29:00,
2013-04-05 22:14:00,56.5,47.0,29.91,ESE,117,13.0,18.0,70,0.00,,,0.01,weatherlink.com 1.10,2013-04-06 03:14:00,
2013-04-05 22:29:00,56.5,47.0,29.91,SE,138,12.0,21.0,70,0.00,,,0.01,weatherlink.com 1.10,2013-04-06 03:29:00,
2013-04-05 22:44:00,56.7,47.0,29.91,ESE,123,11.0,17.0,70,0.00,,,0.01,weatherlink.com 1.10,2013-04-06 03:44:00,
2013-04-05 22:59:00,56.8,47.0,29.90,SE,125,12.0,18.0,69,0.00,,,0.01,weatherlink.com 1.10,2013-04-06 03:59:00,
2013-04-05 23:14:00,56.5,47.0,29.89,SE,129,11.0,18.0,70,0.00,,,0.01,weatherlink.com 1.10,2013-04-06 04:14:00,
2013-04-05 23:29:00,56.4,47.0,29.89,SE,145,12.0,18.0,71,0.00,,,0.01,weatherlink.com 1.10,2013-04-06 04:29:00,
2013-04-05 23:44:00,56.3,47.0,29.89,ESE,117,8.0,21.0,71,0.00,,,0.01,weatherlink.com 1.10,2013-04-06 04:44:00,
2013-04-05 23:59:00,56.0,47.0,29.88,SSE,151,9.0,19.0,72,0.00,,,0.01,weatherlink.com 1.10,2013-04-06 04:59:00,